Вернуться в каталог

CHUANG XIN 1-02

CX-1-02

АктивенНаукаSSO
NORAD 33434·PAYLOAD·🇨🇳 China

Запущен Nov 5, 2008 с Jiuquan Satellite Launch Center

Loading…

Ближайшие Пролёты (ближайшие 24 часа)

TLE

СвежийSource: Space-Track

Эпоха: Sep 14, 2026, 11:58 UTC

1 33434U 08056B   26257.49914646  .00000016  00000-0  23240-4 0  9993
2 33434  98.6099 282.8615 0013205 235.9333 124.0596 14.30168097931381

Отслеживайте CHUANG XIN 1-02 в реальном времени с AllMySat

Download on the App Store